Please be sure to check the latest weather conditions by clicking the link and viewing our local weather information!

Check Weather

Welcome to Lakeway Airpark (3R9)

FromTheAir

We’re a community airpark nestled within the town of Lakeway, Texas (17 miles northwest of downtown Austin).

Lakeway Airpark, Inc. was formed by Lakeway residents and interested parties to own and manage Lakeway Airpark (3R9).

The Airpark is a privately owned not for profit public use airport for residents and guests of Lakeway. No public funds are used and the airport is supported by fees and fuel sales at the airport.

Lakeway Airpark is an unmanned facility open for use from Sunrise to Sunset seven days a week. Takeoffs and landings are not permitted at night, between Sunset and Sunrise, by City Ordinance.

Quick Weather Info

Available data for KAUS from the past 2 hours
AUSTIN, TX
Metar
KAUS 232353Z 11004KT 10SM FEW250 13/01 A3007 RMK AO2 SLP186 T01330011 10217 20133 55002 $

23:53 UTC

Wind: 110° 4kt

Visibility: 10 SM

Sky: FEW 25000 ft

Temp: 13 deg C / 55.4 deg F

Dewpoint: 1 deg C / 33.8 deg F

Pressure: 30.07 inHg

TAF
KAUS 232333Z 2400/2506 VRB03KT P6SM SKC FM241700 19010KT P6SM FEW250